TimePST,TemperatureF,Dew PointF,Humidity,Sea Level PressureIn,VisibilityMPH,Wind Direction,Wind SpeedMPH,Gust SpeedMPH,PrecipitationIn,Events,Conditions,WindDirDegrees,DateUTC
12:53 AM,52.0,39.9,63,30.04,10.0,Calm,Calm,-,N/A,,Clear,0,2012-11-14 08:53:00
1:53 AM,53.1,41.0,64,30.04,10.0,Calm,Calm,-,N/A,,Clear,0,2012-11-14 09:53:00
2:53 AM,52.0,42.1,69,30.04,10.0,Calm,Calm,-,N/A,,Clear,0,2012-11-14 10:53:00
3:53 AM,50.0,41.0,71,30.04,10.0,Calm,Calm,-,N/A,,Clear,0,2012-11-14 11:53:00
4:53 AM,51.1,41.0,68,30.04,10.0,Calm,Calm,-,N/A,,Clear,0,2012-11-14 12:53:00
5:53 AM,50.0,42.1,74,30.04,10.0,Calm,Calm,-,N/A,,Clear,0,2012-11-14 13:53:00
6:53 AM,50.0,41.0,71,30.04,10.0,Calm,Calm,-,N/A,,Clear,0,2012-11-14 14:53:00
7:53 AM,55.0,39.0,55,30.05,10.0,Calm,Calm,-,N/A,,Clear,0,2012-11-14 15:53:00
8:53 AM,61.0,34.0,36,30.07,10.0,Calm,Calm,-,N/A,,Clear,0,2012-11-14 16:53:00
9:53 AM,66.9,35.1,31,30.07,10.0,Calm,Calm,-,N/A,,Clear,0,2012-11-14 17:53:00
10:53 AM,72.0,35.1,26,30.06,10.0,SSE,3.5,-,N/A,,Clear,150,2012-11-14 18:53:00
11:53 AM,72.0,39.9,31,30.03,10.0,South,4.6,-,N/A,,Clear,190,2012-11-14 19:53:00
12:53 PM,71.1,39.9,32,30.01,10.0,South,4.6,-,N/A,,Clear,190,2012-11-14 20:53:00
1:53 PM,70.0,46.0,42,30.00,10.0,South,5.8,-,N/A,,Clear,180,2012-11-14 21:53:00
2:53 PM,69.1,48.0,47,29.99,10.0,South,5.8,-,N/A,,Clear,190,2012-11-14 22:53:00
3:53 PM,68.0,46.9,47,29.99,10.0,Calm,Calm,-,N/A,,Clear,0,2012-11-14 23:53:00
4:53 PM,64.0,55.9,75,29.99,6.0,SSW,4.6,-,N/A,,Haze,200,2012-11-15 00:53:00
5:53 PM,63.0,57.0,81,30.01,6.0,Calm,Calm,-,N/A,,Haze,0,2012-11-15 01:53:00
6:53 PM,61.0,55.9,83,30.02,5.0,Calm,Calm,-,N/A,,Haze,0,2012-11-15 02:53:00
7:53 PM,60.1,55.9,86,30.03,4.0,Calm,Calm,-,N/A,,Clear,0,2012-11-15 03:53:00
8:48 PM,57.2,55.4,94,30.04,2.5,South,3.5,-,N/A,,Clear,170,2012-11-15 04:48:00
8:50 PM,57.2,55.4,94,30.04,1.5,South,3.5,-,N/A,,Partly Cloudy,170,2012-11-15 04:50:00
8:53 PM,57.0,55.0,93,30.04,0.8,SSE,3.5,-,N/A,,Mist,150,2012-11-15 04:53:00
9:04 PM,57.2,55.4,94,30.04,0.2,Calm,Calm,-,N/A,Fog,Fog,0,2012-11-15 05:04:00
9:40 PM,57.2,55.4,94,30.04,2.5,Calm,Calm,-,N/A,,Overcast,0,2012-11-15 05:40:00
9:53 PM,57.0,55.0,93,30.04,0.8,Calm,Calm,-,N/A,,Mist,0,2012-11-15 05:53:00
9:56 PM,57.2,55.4,94,30.04,0.8,SSE,3.5,-,N/A,,Mist,150,2012-11-15 05:56:00
10:18 PM,57.2,55.4,94,30.04,0.2,Calm,Calm,-,N/A,Fog,Fog,0,2012-11-15 06:18:00
10:53 PM,57.9,55.9,93,30.05,0.2,South,3.5,-,N/A,Fog,Fog,190,2012-11-15 06:53:00
11:13 PM,57.2,55.4,94,30.04,0.2,ESE,3.5,-,N/A,Fog,Fog,120,2012-11-15 07:13:00
11:20 PM,57.2,55.4,94,30.04,0.2,SE,3.5,-,N/A,Fog,Fog,130,2012-11-15 07:20:00
11:53 PM,57.0,55.9,96,30.02,0.2,East,5.8,-,N/A,Fog,Fog,100,2012-11-15 07:53:00